[[{"header":{"parameterUnit":"m.s-1","parameterCategory":1,"la1":30.2991,"la2":30.254,"lo1":-89.0895,"lo2":-89.0444,"dy":0.0017,"dx":0.0017,"nx":28,"ny":28,"refTime":"2025-05-21T03:00:00:Z","depth":0,"parameterNumber":2,"parameterNumberName":"U-component_of_WINDS"},"data":[0,0,0,0,0,0,0,0,0,0,0,0,0,0,0,0,0,0,0,0,0,0,0,0,0,0,0,0,0,0,0,0,0,0,0,0,0,0,0,0,0,0,0,0,0,0,0,0,0,0,0,0,0,0,0,0,0,0,0.8162,0.8161,0,0.8085,0.8084,0.8083,0.7925,0.7922,0.7918,0.7915,0.784,0.7841,0.7842,0,0,0,0,0,0,0,0,0,0,0,0,0,0.8177,0.8177,0.8162,0.8161,0.816,0.8085,0.8084,0.8083,0.7925,0.7921,0.7918,0.7914,0.784,0.7841,0.7842,0,0,0,0,0,0,0,0,0,0,0,0,0,0.8142,0.8177,0.8162,0.8072,0.8064,0.8085,0.8084,0.8082,0.7926,0.7921,0.7917,0.7912,0.7839,0.7841,0.7842,0.7946,0,0,0.7846,0.7847,0,0,0,0,0,0,0,0,0.8144,0.8142,0.8087,0.8079,0.8069,0.8009,0.8061,0.8037,0.7927,0.7979,0.7915,0.791,0.7901,0.7897,0.7893,0.7942,0.7939,0.7847,0.7847,0.7848,0.7848,0,0,0,0,0,0,0,0.8147,0.8144,0.8131,0.8086,0.8075,0.8037,0.8027,0.8056,0.7967,0.7974,0.7962,0.7955,0.7895,0.7892,0.789,0.7938,0.7847,0.7848,0.7849,0.7849,0.8068,0.8073,0,0,0,0,0,0,0.8162,0.8147,0.8134,0.8129,0.8095,0.8041,0.8029,0.8033,0.7966,0.7952,0.7959,0.7948,0.7892,0.7888,0.7886,0.8003,0.7848,0.7849,0.785,0.8063,0.8069,0.8075,0,0,0,0,0,0,0.8163,0.8162,0.8137,0.8135,0.8129,0.8045,0.8051,0.8034,0.8031,0.7955,0.7939,0.7972,0.7888,0.7884,0.7932,0.7998,0.785,0.7851,0.8058,0.8065,0.8072,0.8238,0,0,0,0,0,0,0.8164,0.8163,0.8201,0.8137,0.813,0.8184,0.8055,0.8036,0.8033,0.8018,0.7963,0.7949,0.7884,0.7931,0.7933,0.7998,0.7852,0.8051,0.8061,0.807,0.8227,0.8251,0.8271,0,0,0,0,0,0.8165,0.8252,0.8204,0.8203,0.8175,0.8188,0.8184,0.8105,0.8039,0.8077,0.8028,0.7951,0.7991,0.7937,0.7938,0.8005,0.8047,0.8058,0.8069,0.8217,0.8246,0.8271,0,0,0,0,0,0,0.8328,0.8242,0.8188,0.8257,0.8231,0.8161,0.8206,0.8139,0.8132,0.8118,0.8022,0.8011,0.8071,0.8042,0.7984,0.8101,0.8006,0.8018,0.8118,0.8145,0.8167,0.8173,0.7854,0,0,0,0,0,0.8372,0.8389,0.8313,0.8381,0.837,0.8291,0.8294,0.8235,0.8205,0.8193,0.8148,0.8122,0.8128,0.8135,0.8137,0.8221,0.8207,0.8267,0.829,0.8308,0.832,0.8363,0.8389,0.8112,0.8111,0.8111,0,0,0.8464,0.8418,0.8435,0.8412,0.8385,0.8405,0.8283,0.8309,0.8324,0.8198,0.8239,0.8205,0.817,0.8237,0.8264,0.8215,0.8393,0.8322,0.8338,0.834,0.8377,0.8403,0.8427,0.8119,0.8118,0.8117,0,0,0.864,0.8607,0.866,0.8635,0.8595,0.8541,0.8554,0.8495,0.8467,0.8507,0.8413,0.8428,0.8441,0.842,0.8411,0.8579,0.8508,0.8582,0.8699,0.8742,0.8764,0.8783,0.8843,0.8866,0.8594,0.8594,0.8595,0,0.8759,0.8784,0.8696,0.8728,0.8722,0.8607,0.866,0.8641,0.8604,0.8603,0.8547,0.8561,0.8529,0.8589,0.863,0.8626,0.8639,0.8589,0.8767,0.8785,0.8802,0.8858,0.8881,0.8604,0.8603,0.8602,0.8601,0,0.8932,0.8952,0.8999,0.8965,0.8963,0.9007,0.8926,0.8935,0.8877,0.883,0.8872,0.883,0.8821,0.883,0.8774,0.8883,0.8853,0.8784,0.8687,0.8839,0.889,0.8911,0.8617,0.8614,0.8611,0.8609,0,0,0.9211,0.9127,0.9146,0.9129,0.9076,0.9089,0.9127,0.9117,0.9127,0.9105,0.9135,0.9148,0.9083,0.9073,0.9014,0.9051,0.9187,0.8977,0.8975,0.9018,0.9304,0.9357,0.9384,0.9139,0.9143,0.9146,0.9307,0,0.9376,0.9435,0.9357,0.9433,0.945,0.9341,0.9373,0.9345,0.9302,0.931,0.9262,0.9274,0.9187,0.918,0.9212,0.9164,0.9243,0.9151,0.9167,0.9169,0.918,0.941,0.9467,0.9621,0.9327,0.933,0.9333,0,0.9577,0.9563,0.9641,0.9583,0.9587,0.9618,0.9602,0.9611,0.9577,0.9542,0.9531,0.9459,0.9493,0.9398,0.9443,0.9382,0.9384,0.9361,0.9365,0.9365,0.9261,0.9417,0.9669,0.9693,0.9363,0.9361,0.9359,0,0.9773,0.9774,0.9821,0.981,0.9742,0.9767,0.974,0.97,0.9699,0.9686,0.9684,0.9675,0.9671,0.9666,0.9594,0.9532,0.9649,0.9548,0.9622,0.9624,0.9653,0.9652,0.991,0.9653,0.9653,0.9652,0.9652,0,0.9966,1.0018,0.9908,0.9937,0.9992,0.9902,0.996,0.9922,0.9888,0.9908,0.9813,0.9834,0.9737,0.9748,0.9692,0.9739,0.9737,0.9711,0.9696,0.972,0.9724,0.9721,0.9708,0.9658,0.9657,0.9656,0.9655,0,1.0195,1.0123,1.0166,1.0099,1.0083,1.0127,1.0069,1.0093,1.0043,1.007,1.0071,0.9994,1.0002,0.9929,0.9923,0.9885,0.9958,0.9924,0.997,0.996,1.0038,1.0032,1.0303,1.0334,1.0058,1.0061,1.0063,0,1.0323,1.036,1.0296,1.0302,1.028,1.0291,1.0289,1.0202,1.0203,1.0167,1.0196,1.0196,1.0191,1.0209,1.0153,1.0148,1.0113,1.0208,1.0112,1.0135,1.0115,1.0114,1.0118,1.0229,1.0233,1.0235,1.0238,0,1.0558,1.0521,1.052,1.0508,1.0508,1.0495,1.0475,1.0486,1.0391,1.0398,1.0404,1.04,1.0394,1.0396,1.038,1.0352,1.0281,1.0268,1.0285,1.0311,1.0336,1.0324,1.0026,1.0263,1.026,1.0258,1.0257,1.0256,1.0741,1.0769,1.0728,1.0731,1.0706,1.069,1.071,1.0661,1.0665,1.0652,1.06,1.0616,1.058,1.0551,1.0531,1.0543,1.0496,1.0521,1.0527,1.0535,1.055,1.0334,1.0539,1.0539,1.0538,1.0537,1.0536,0,1.0972,1.0939,1.0943,1.0918,1.0921,1.085,1.0825,1.0832,1.0847,1.0819,1.0816,1.0823,1.0824,1.0767,1.0761,1.0781,1.0748,1.0782,1.0781,1.0776,1.0591,1.0577,1.081,1.081,1.0809,1.0809,1.0809,1.0809,1.1092,1.1136,1.1093,1.1124,1.1091,1.1105,1.1097,1.1082,1.1059,1.1071,1.1071,1.1033,1.0994,1.0984,1.0981,1.0964,1.0967,1.1014,1.0986,1.0815,1.0789,1.0763,1.075,1.1015,1.1015,1.1169,1.1171,1.1172]},{"header":{"parameterUnit":"m.s-1","parameterCategory":1,"la1":30.2991,"la2":30.254,"lo1":-89.0895,"lo2":-89.0444,"dy":0.0017,"dx":0.0017,"nx":28,"ny":28,"refTime":"2025-05-21T03:00:00:Z","depth":0,"parameterNumber":3,"parameterNumberName":"V-component_of_WINDS"},"data":[0,0,0,0,0,0,0,0,0,0,0,0,0,0,0,0,0,0,0,0,0,0,0,0,0,0,0,0,0,0,0,0,0,0,0,0,0,0,0,0,0,0,0,0,0,0,0,0,0,0,0,0,0,0,0,0,0,0,0.5103,0.5104,0,0.5207,0.5208,0.5209,0.5213,0.5212,0.5211,0.521,0.532,0.5324,0.5328,0,0,0,0,0,0,0,0,0,0,0,0,0,0.4912,0.4916,0.5103,0.5104,0.5106,0.5207,0.5208,0.521,0.5214,0.5212,0.521,0.5209,0.5319,0.5324,0.5329,0,0,0,0,0,0,0,0,0,0,0,0,0,0.5003,0.4917,0.5103,0.512,0.5122,0.5206,0.5208,0.521,0.5214,0.5212,0.521,0.5208,0.5317,0.5323,0.5329,0.5405,0,0,0.5348,0.5351,0,0,0,0,0,0,0,0,0.4998,0.5011,0.5116,0.5119,0.5122,0.5195,0.5181,0.5276,0.5214,0.5179,0.521,0.5207,0.528,0.529,0.5313,0.541,0.5415,0.5349,0.5353,0.5355,0.5357,0,0,0,0,0,0,0,0.4992,0.5006,0.5144,0.5117,0.5121,0.5123,0.5134,0.5199,0.5239,0.5182,0.5183,0.5195,0.5282,0.5307,0.5316,0.5417,0.5349,0.5354,0.5358,0.536,0.5581,0.5583,0,0,0,0,0,0,0.4982,0.5001,0.5141,0.5147,0.5054,0.5128,0.514,0.5174,0.5238,0.5247,0.5196,0.5194,0.5298,0.5309,0.532,0.5413,0.5355,0.5361,0.5364,0.5579,0.5582,0.5584,0,0,0,0,0,0,0.4978,0.4994,0.5137,0.5074,0.5093,0.5134,0.5171,0.5177,0.5202,0.5249,0.5257,0.5215,0.5297,0.5311,0.5384,0.5417,0.5364,0.5369,0.5577,0.558,0.5583,0.5599,0,0,0,0,0,0,0.4972,0.4993,0.5021,0.5075,0.5096,0.5198,0.5173,0.518,0.5212,0.5211,0.5268,0.5276,0.5296,0.5374,0.539,0.5424,0.5374,0.5574,0.5578,0.5582,0.5596,0.5603,0.5608,0,0,0,0,0,0.4965,0.5023,0.5022,0.5039,0.5132,0.52,0.5212,0.5232,0.5215,0.5244,0.5274,0.5274,0.541,0.5382,0.5399,0.5436,0.5572,0.5577,0.5582,0.5593,0.5601,0.5608,0,0,0,0,0,0,0.4973,0.503,0.503,0.5106,0.5148,0.52,0.5238,0.524,0.5289,0.5286,0.5311,0.5324,0.5396,0.5423,0.539,0.5513,0.5489,0.5498,0.5492,0.55,0.5506,0.5499,0.5379,0,0,0,0,0,0.4983,0.5032,0.508,0.5142,0.5163,0.5197,0.5227,0.5239,0.5284,0.5302,0.5337,0.5382,0.5435,0.5469,0.552,0.56,0.5613,0.5634,0.564,0.5645,0.5652,0.5697,0.5707,0.56,0.56,0.56,0,0,0.5006,0.5043,0.5073,0.5145,0.5178,0.523,0.5212,0.5267,0.5305,0.5311,0.5381,0.5408,0.546,0.5536,0.5572,0.5561,0.5684,0.5651,0.5655,0.566,0.5703,0.5713,0.5722,0.5603,0.5603,0.5602,0,0,0.5073,0.5105,0.5161,0.5195,0.5245,0.5267,0.528,0.5332,0.535,0.5421,0.5426,0.5473,0.5563,0.5599,0.563,0.5709,0.5712,0.5726,0.5759,0.5802,0.581,0.5818,0.5847,0.5857,0.5733,0.5733,0.5733,0,0.5095,0.5171,0.519,0.5245,0.5277,0.5282,0.5339,0.5371,0.5437,0.5459,0.5446,0.5559,0.5594,0.5679,0.5699,0.5723,0.574,0.572,0.5807,0.5815,0.5822,0.585,0.5861,0.5734,0.5734,0.5734,0.5734,0,0.5196,0.5248,0.5288,0.5349,0.5385,0.5441,0.5469,0.5504,0.5513,0.5536,0.5608,0.565,0.571,0.5731,0.5741,0.5818,0.581,0.5801,0.5779,0.5833,0.586,0.5871,0.5736,0.5736,0.5735,0.5735,0,0,0.5272,0.5341,0.5355,0.5383,0.5439,0.5481,0.5537,0.5594,0.5623,0.5668,0.5717,0.5793,0.5785,0.582,0.5834,0.5871,0.5932,0.5859,0.586,0.5871,0.602,0.6026,0.6038,0.5934,0.5936,0.5938,0.6016,0,0.5345,0.5444,0.5462,0.5549,0.5598,0.5603,0.5652,0.5693,0.5716,0.5762,0.5789,0.5842,0.5828,0.5849,0.5887,0.5917,0.5963,0.5911,0.5981,0.5983,0.5968,0.6052,0.6059,0.6131,0.6027,0.6029,0.603,0,0.5444,0.549,0.5581,0.5629,0.5651,0.5694,0.5748,0.5791,0.5837,0.5852,0.589,0.5899,0.5959,0.5933,0.6016,0.5981,0.601,0.6029,0.6033,0.604,0.601,0.6063,0.6155,0.6166,0.6046,0.6045,0.6044,0,0.5491,0.5575,0.564,0.5664,0.5722,0.5753,0.5779,0.5823,0.5855,0.5903,0.5924,0.5979,0.6008,0.6051,0.6075,0.6053,0.6157,0.6132,0.6172,0.6171,0.6194,0.6192,0.6292,0.6212,0.6212,0.6211,0.6211,0,0.5572,0.5627,0.5662,0.5702,0.5765,0.5786,0.5848,0.5873,0.5912,0.5958,0.5967,0.601,0.6039,0.6087,0.6107,0.6173,0.6187,0.6201,0.6206,0.6201,0.6199,0.6221,0.6217,0.6214,0.6214,0.6213,0.6213,0,0.5635,0.566,0.5732,0.578,0.5794,0.5838,0.5881,0.5921,0.5943,0.6002,0.6017,0.6054,0.6111,0.6138,0.621,0.6223,0.6298,0.6299,0.6282,0.6284,0.6322,0.6318,0.644,0.6458,0.6365,0.6366,0.6366,0,0.5685,0.5728,0.578,0.5811,0.5837,0.5887,0.592,0.5942,0.5977,0.6032,0.6065,0.6122,0.6169,0.626,0.6294,0.6348,0.6351,0.639,0.636,0.6353,0.6353,0.635,0.6355,0.6396,0.6397,0.6398,0.6398,0,0.5771,0.5781,0.5828,0.5879,0.5918,0.596,0.6001,0.6026,0.6055,0.6093,0.615,0.6187,0.6258,0.6315,0.6372,0.64,0.6405,0.6407,0.6419,0.6415,0.6404,0.6411,0.6298,0.6405,0.6404,0.6404,0.6403,0.6403,0.583,0.5868,0.5911,0.5963,0.5995,0.6033,0.6073,0.61,0.6148,0.6207,0.6218,0.6279,0.6324,0.64,0.643,0.6479,0.6471,0.6488,0.6493,0.6497,0.6499,0.6395,0.649,0.649,0.649,0.6489,0.6489,0,0.5917,0.5945,0.5992,0.6048,0.6089,0.6087,0.6133,0.6168,0.6221,0.6261,0.6307,0.6373,0.6428,0.6465,0.6521,0.6553,0.6557,0.6568,0.6566,0.6572,0.6503,0.6487,0.6564,0.6564,0.6564,0.6564,0.6564,0.6564,0.5968,0.6032,0.6047,0.6128,0.6156,0.6214,0.624,0.6276,0.6308,0.6381,0.6426,0.6449,0.6489,0.6548,0.6599,0.6609,0.6629,0.664,0.665,0.6585,0.6577,0.657,0.6555,0.6644,0.6644,0.6715,0.6716,0.6716]}]]